Weather History for KTMB - August, 2013

Change the Weather History Date:

Wednesday, August 7, 2013

  Actual Average (KMIA) Record (KMIA)
Temperature  
Mean Temperature 82 °F 84 °F  
Max Temperature 91 °F 91 °F 97 °F (1956)
Min Temperature 75 °F 78 °F 68 °F (1939)
Degree Days  
Heating Degree Days 0 0  
Month to date heating degree days 0  
Since 1 June heating degree days 0  
Since 1 July heating degree days 0  
Cooling Degree Days 17 20  
Month to date cooling degree days 140  
Year to date cooling degree days 2620  
Since 1 June cooling degree days 1264  
Growing Degree Days 32 (Base 50)    
Moisture  
Dew Point 74 °F    
Average Humidity 76    
Maximum Humidity 97    
Minimum Humidity 57    
Precipitation  
Precipitation 0.00 in 0.27 in 2.41 in (2011)
Month to date precipitation 1.77  
Year to date precipitation 33.29  
Snow  
Snow 0.00 in - - ()
Month to date snowfall  
Since 1 June snowfall  
Since 1 July snowfall  
Snow Depth -    
Sea Level Pressure  
Sea Level Pressure 29.95 in    
Wind  
Wind Speed 4 mph (SE)    
Max Wind Speed 14 mph    
Max Gust Speed 20 mph    
Visibility 10 miles    
Events      
T = Trace of Precipitation, MM = Missing Value Source: NWS Daily Summary

Daily Weather History Graph

Daily Weather History Graph

Search for Another Location

Airport or City:

Trip Planner

Search our weather history database for the weather conditions in past years. The results will help you decide how hot, cold, wet, or windy it might be!

Date:

Astronomy

Aug. 07, 2013 Rise Set
Actual Time 6:51 AM EDT 8:03 PM EDT
Civil Twilight 6:26 AM EDT 8:27 PM EDT
Nautical Twilight 5:57 AM EDT 8:56 PM EDT
Astronomical Twilight 5:28 AM EDT 9:26 PM EDT
Moon 7:27 AM EDT (8/7) 8:23 PM EDT (8/7)
Length of Visible Light 14h 00m
Length of Day
13h 11m
New Moon, 1% of the Moon is Illuminated
Aug 7
New Moon
Aug 14
First Quarter
Aug 20
Full
Aug 28
Last Quarter
Sep 5
New

Hourly Weather History & Observations

Time (EDT) Temp. Heat Index Dew Point Humidity Pressure Visibility Wind Dir Wind Speed Gust Speed Precip Events Conditions
12:53 AM 80.1 °F 85.4 °F 75.9 °F 87% 29.96 in 10.0 mi Calm Calm - N/A   Clear
1:53 AM 79.0 °F - 75.9 °F 90% 29.94 in 10.0 mi Calm Calm - N/A   Clear
2:53 AM 75.9 °F - 75.0 °F 97% 29.93 in 10.0 mi Calm Calm - N/A   Clear
3:53 AM 79.0 °F - 75.9 °F 90% 29.92 in 10.0 mi Calm Calm - N/A   Mostly Cloudy
4:53 AM 77.0 °F - 75.9 °F 96% 29.91 in 10.0 mi Calm Calm - N/A   Scattered Clouds
5:53 AM 77.0 °F - 75.9 °F 96% 29.93 in 10.0 mi Calm Calm - N/A   Partly Cloudy
6:53 AM 78.1 °F - 75.9 °F 93% 29.94 in 10.0 mi Calm Calm - N/A   Clear
7:53 AM 80.1 °F 86.4 °F 78.1 °F 94% 29.94 in 10.0 mi Calm Calm - N/A   Clear
8:53 AM 84.9 °F 94.1 °F 75.9 °F 74% 29.96 in 10.0 mi SSE 5.8 mph - N/A   Partly Cloudy
9:53 AM 86.0 °F 95.1 °F 75.0 °F 70% 29.96 in 10.0 mi SSE 8.1 mph - N/A   Partly Cloudy
10:53 AM 89.1 °F 99.1 °F 75.0 °F 63% 29.97 in 10.0 mi SE 11.5 mph 17.3 mph 0.00 in   Scattered Clouds
11:53 AM 87.1 °F 93.6 °F 72.0 °F 61% 29.96 in 10.0 mi SE 10.4 mph - N/A   Partly Cloudy
12:53 PM 88.0 °F 97.5 °F 75.0 °F 65% 29.96 in 10.0 mi SE 12.7 mph 18.4 mph 0.00 in   Mostly Cloudy
1:53 PM 89.1 °F 97.0 °F 73.0 °F 59% 29.96 in 10.0 mi SE 13.8 mph 19.6 mph N/A   Clear
2:53 PM 89.1 °F 98.0 °F 73.9 °F 61% 29.95 in 10.0 mi ESE 11.5 mph - N/A   Mostly Cloudy
3:53 PM 89.1 °F 96.0 °F 72.0 °F 57% 29.94 in 10.0 mi Variable 6.9 mph - N/A   Clear
4:53 PM 86.0 °F 92.2 °F 72.0 °F 63% 29.94 in 10.0 mi SE 10.4 mph - N/A   Scattered Clouds
5:53 PM 86.0 °F 92.2 °F 72.0 °F 63% 29.94 in 10.0 mi SE 9.2 mph - N/A   Clear
6:53 PM 86.0 °F 92.2 °F 72.0 °F 63% 29.93 in 10.0 mi ESE 11.5 mph - N/A   Clear
7:53 PM 84.0 °F 90.2 °F 73.0 °F 69% 29.94 in 10.0 mi SE 8.1 mph - N/A   Clear
8:53 PM 82.9 °F 89.4 °F 73.9 °F 74% 29.95 in 10.0 mi ESE 4.6 mph - N/A   Clear
9:53 PM 82.0 °F 87.9 °F 73.9 °F 76% 29.96 in 10.0 mi ESE 5.8 mph - N/A   Clear
10:53 PM 82.0 °F 88.6 °F 75.0 °F 79% 29.99 in 10.0 mi ESE 6.9 mph - N/A   Clear
11:53 PM 82.0 °F 87.9 °F 73.9 °F 76% 29.98 in 10.0 mi ESE 8.1 mph - N/A   Clear